Mather AFB, CA

8:11 PM PDT on October 20, 2017 (GMT -0700)
Mather

Weather History for KMHR - February, 2014

Change the Weather History Date:

Tuesday, February 25, 2014

  Actual Average Record
Temperature  
Mean Temperature 56 °F -  
Max Temperature 73 °F 57 °F 73 °F (2014)
Min Temperature 39 °F 38 °F 32 °F (2012)
Degree Days  
Heating Degree Days 9    
Growing Degree Days 6 (Base 50)    
Moisture  
Dew Point 44 °F    
Average Humidity 71    
Maximum Humidity 100    
Minimum Humidity 33    
Precipitation  
Precipitation 0.00 in - - ()
Sea Level Pressure  
Sea Level Pressure 29.92 in    
Wind  
Wind Speed 2 mph (SSW)    
Max Wind Speed 7 mph    
Max Gust Speed -    
Visibility 10 miles    
Events      
Averages and records for this station are not official NWS values.
T = Trace of Precipitation, MM = Missing Value Source: NWS Daily Summary

Daily Weather History Graph

Daily Weather History Graph

Search for Another Location

Airport or City:

Trip Planner

Search our weather history database for the weather conditions in past years. The results will help you decide how hot, cold, wet, or windy it might be!

Date:

Astronomy

Feb. 25, 2014 Rise Set
Actual Time 6:42 AM PST 5:54 PM PST
Civil Twilight 6:16 AM PST 6:20 PM PST
Nautical Twilight 5:45 AM PST 6:51 PM PST
Astronomical Twilight 5:14 AM PST 7:22 PM PST
Moon 3:40 AM PST (2/25) 2:07 PM PST (2/25)
Length of Visible Light 12h 04m
Length of Day
11h 11m
Waning Crescent, 17% of the Moon is Illuminated
Feb 25
Waning Crescent
Mar 1
New
Mar 8
First Quarter
Mar 16
Full
Mar 23
Last Quarter

Hourly Weather History & Observations

Time (PST) Temp. Dew Point Humidity Pressure Visibility Wind Dir Wind Speed Gust Speed Precip Events Conditions
2:55 AM 42.8 °F 42.8 °F 100% 29.93 in 10.0 mi Calm Calm - N/A   Clear
3:55 AM 42.8 °F 42.8 °F 100% 29.92 in 10.0 mi Calm Calm - N/A   Clear
4:45 AM 42.8 °F 42.8 °F 100% 29.93 in 10.0 mi North - - N/A   Clear
5:45 AM 41.0 °F 41.0 °F 100% 29.93 in 10.0 mi Calm Calm - N/A   Clear
6:45 AM 39.2 °F 39.2 °F 100% 29.94 in 10.0 mi Calm Calm - N/A   Clear
7:53 AM 48.2 °F 46.4 °F 93% 29.96 in 10.0 mi Calm Calm - N/A   Clear
8:47 AM 55.4 °F 44.6 °F 67% 29.97 in 10.0 mi Calm Calm - N/A   Clear
9:53 AM 62.6 °F 44.6 °F 52% 29.96 in 10.0 mi Calm Calm - N/A   Partly Cloudy
10:48 AM 64.4 °F 46.4 °F 52% 29.96 in 10.0 mi Calm Calm - N/A   Partly Cloudy
11:46 AM 66.2 °F 48.2 °F 52% 29.95 in 10.0 mi SW 4.6 mph - N/A   Partly Cloudy
12:46 PM 68.0 °F 46.4 °F 46% 29.92 in 10.0 mi WNW 4.6 mph - N/A   Partly Cloudy
1:46 PM 71.6 °F 44.6 °F 38% 29.90 in 10.0 mi Calm Calm - N/A   Partly Cloudy
2:46 PM 73.4 °F 42.8 °F 33% 29.88 in 10.0 mi West 4.6 mph - N/A   Scattered Clouds
3:45 PM 71.6 °F 42.8 °F 35% 29.87 in 10.0 mi SSW 5.8 mph - N/A   Mostly Cloudy
4:45 PM 69.8 °F 44.6 °F 40% 29.87 in 10.0 mi SW 6.9 mph - N/A   Mostly Cloudy
5:45 PM 64.4 °F 41.0 °F 42% 29.88 in 10.0 mi SSW 6.9 mph - N/A   Mostly Cloudy
6:46 PM 57.2 °F 42.8 °F 59% 29.90 in 10.0 mi SW 5.8 mph - N/A   Mostly Cloudy
7:50 PM 51.8 °F 46.4 °F 82% 29.90 in 10.0 mi South 3.5 mph - N/A   Mostly Cloudy
8:55 PM 48.2 °F 46.4 °F 93% 29.92 in 10.0 mi South 4.6 mph - N/A   Scattered Clouds
9:55 PM 48.2 °F 48.2 °F 100% 29.92 in 10.0 mi South 4.6 mph - N/A   Scattered Clouds
10:55 PM 48.2 °F 48.2 °F 100% 29.92 in 10.0 mi SE 5.8 mph - N/A   Scattered Clouds